TimePDT,TemperatureF,Dew PointF,Humidity,Sea Level PressureIn,VisibilityMPH,Wind Direction,Wind SpeedMPH,Gust SpeedMPH,PrecipitationIn,Events,Conditions,WindDirDegrees,DateUTC
2:15 AM,46.4,42.8,87,30.08,10.0,West,3.5,-,N/A,,Clear,280,2013-11-01 09:15:00
2:55 AM,46.4,42.8,87,30.08,10.0,Calm,Calm,-,N/A,,Clear,0,2013-11-01 09:55:00
3:15 AM,46.4,42.8,87,30.08,10.0,NW,3.5,-,N/A,,Clear,320,2013-11-01 10:15:00
3:35 AM,46.4,42.8,87,30.08,10.0,Calm,Calm,-,N/A,,Clear,0,2013-11-01 10:35:00
3:55 AM,46.4,42.8,87,30.07,10.0,Calm,Calm,-,N/A,,Clear,0,2013-11-01 10:55:00
4:15 AM,46.4,42.8,87,30.08,10.0,Calm,Calm,-,N/A,,Clear,0,2013-11-01 11:15:00
4:35 AM,46.4,42.8,87,30.08,10.0,Calm,Calm,-,N/A,,Clear,0,2013-11-01 11:35:00
4:55 AM,46.4,42.8,87,30.08,10.0,Calm,Calm,-,N/A,,Clear,0,2013-11-01 11:55:00
5:15 AM,44.6,42.8,93,30.08,10.0,Calm,Calm,-,N/A,,Clear,0,2013-11-01 12:15:00
5:35 AM,44.6,42.8,93,30.09,10.0,Calm,Calm,-,N/A,,Clear,0,2013-11-01 12:35:00
5:55 AM,44.6,42.8,93,30.09,10.0,Calm,Calm,-,N/A,,Clear,0,2013-11-01 12:55:00
6:15 AM,44.6,42.8,93,30.09,10.0,Calm,Calm,-,N/A,,Clear,0,2013-11-01 13:15:00
6:35 AM,44.6,42.8,93,30.09,10.0,Calm,Calm,-,N/A,,Clear,0,2013-11-01 13:35:00
6:47 AM,44.6,42.8,93,30.09,20.0,Calm,Calm,-,N/A,,Clear,0,2013-11-01 13:47:00
6:55 AM,44.6,42.8,93,30.09,10.0,Calm,Calm,-,N/A,,Light Drizzle,0,2013-11-01 13:55:00
7:15 AM,44.6,42.8,93,30.10,10.0,Calm,Calm,-,N/A,,Clear,0,2013-11-01 14:15:00
7:35 AM,44.6,42.8,93,30.10,10.0,Calm,Calm,-,N/A,,Clear,0,2013-11-01 14:35:00
7:47 AM,46.4,42.8,87,30.10,25.0,Calm,Calm,-,N/A,,Clear,0,2013-11-01 14:47:00
7:55 AM,46.4,42.8,87,30.11,10.0,Calm,Calm,-,N/A,,Clear,0,2013-11-01 14:55:00
8:15 AM,48.2,42.8,82,30.11,10.0,Calm,Calm,-,N/A,,Clear,0,2013-11-01 15:15:00
8:35 AM,51.8,42.8,71,30.11,10.0,Calm,Calm,-,N/A,,Clear,0,2013-11-01 15:35:00
8:47 AM,51.8,42.8,71,30.12,25.0,Calm,Calm,-,N/A,,Clear,0,2013-11-01 15:47:00
8:55 AM,53.6,42.8,67,30.12,10.0,Calm,Calm,-,N/A,,Clear,0,2013-11-01 15:55:00
9:15 AM,55.4,42.8,63,30.12,10.0,Calm,Calm,-,N/A,,Clear,0,2013-11-01 16:15:00
9:35 AM,60.8,42.8,52,30.11,10.0,Calm,Calm,-,N/A,,Clear,0,2013-11-01 16:35:00
9:55 AM,62.6,42.8,48,30.11,10.0,Calm,Calm,-,N/A,,Clear,0,2013-11-01 16:55:00
10:15 AM,66.2,42.8,43,30.11,10.0,Calm,Calm,-,N/A,,Clear,0,2013-11-01 17:15:00
10:35 AM,69.8,42.8,38,30.10,10.0,Calm,Calm,-,N/A,,Clear,0,2013-11-01 17:35:00
10:55 AM,71.6,41.0,33,30.10,10.0,Calm,Calm,-,N/A,,Clear,0,2013-11-01 17:55:00
11:15 AM,75.2,39.2,27,30.09,10.0,Calm,Calm,-,N/A,,Clear,0,2013-11-01 18:15:00
11:35 AM,78.8,33.8,20,30.08,10.0,Calm,Calm,-,N/A,,Clear,0,2013-11-01 18:35:00
11:55 AM,80.6,33.8,18,30.07,10.0,Calm,Calm,-,N/A,,Clear,0,2013-11-01 18:55:00
12:15 PM,82.4,33.8,17,30.06,10.0,WNW,3.5,-,N/A,,Clear,300,2013-11-01 19:15:00
12:35 PM,84.2,32.0,15,30.05,10.0,Calm,Calm,-,N/A,,Clear,0,2013-11-01 19:35:00
12:55 PM,86.0,33.8,15,30.03,-9999.0,Calm,Calm,-,N/A,,Clear,0,2013-11-01 19:55:00
1:15 PM,86.0,33.8,15,30.01,10.0,Calm,Calm,-,N/A,,Clear,0,2013-11-01 20:15:00
2:55 PM,87.8,37.4,17,29.96,10.0,West,9.2,-,N/A,,Clear,260,2013-11-01 21:55:00
3:15 PM,87.8,37.4,17,29.95,10.0,WSW,6.9,-,N/A,,Clear,250,2013-11-01 22:15:00
3:35 PM,87.8,35.6,16,29.94,10.0,West,12.7,-,N/A,,Clear,260,2013-11-01 22:35:00
3:55 PM,87.8,35.6,16,29.94,10.0,West,10.4,-,N/A,,Clear,270,2013-11-01 22:55:00
4:15 PM,86.0,35.6,17,29.93,10.0,West,12.7,-,N/A,,Clear,270,2013-11-01 23:15:00
4:35 PM,86.0,33.8,15,29.93,10.0,West,5.8,-,N/A,,Clear,280,2013-11-01 23:35:00
4:55 PM,84.2,33.8,16,29.93,10.0,West,8.1,-,N/A,,Clear,270,2013-11-01 23:55:00
5:15 PM,82.4,33.8,17,29.93,10.0,WNW,9.2,-,N/A,,Clear,300,2013-11-02 00:15:00
5:35 PM,78.8,35.6,21,29.94,10.0,SW,4.6,-,N/A,,Clear,220,2013-11-02 00:35:00
5:47 PM,78.8,35.6,21,29.94,25.0,Calm,Calm,-,N/A,,Clear,0,2013-11-02 00:47:00
5:55 PM,77.0,35.6,22,29.95,10.0,South,6.9,-,N/A,,Clear,170,2013-11-02 00:55:00
6:15 PM,75.2,35.6,24,29.95,10.0,Calm,Calm,-,N/A,,Clear,0,2013-11-02 01:15:00
6:35 PM,73.4,37.4,27,29.96,10.0,North,3.5,-,N/A,,Clear,10,2013-11-02 01:35:00
6:55 PM,71.6,37.4,29,29.96,10.0,Calm,Calm,-,N/A,,Clear,0,2013-11-02 01:55:00
7:15 PM,69.8,37.4,31,29.97,10.0,Calm,Calm,-,N/A,,Clear,0,2013-11-02 02:15:00
7:35 PM,66.2,37.4,35,29.97,10.0,Calm,Calm,-,N/A,,Clear,0,2013-11-02 02:35:00
7:55 PM,66.2,37.4,35,29.97,10.0,Calm,Calm,-,N/A,,Clear,0,2013-11-02 02:55:00
8:15 PM,64.4,39.2,40,29.97,10.0,Calm,Calm,-,N/A,,Clear,0,2013-11-02 03:15:00
8:35 PM,62.6,37.4,39,29.97,10.0,Calm,Calm,-,N/A,,Clear,0,2013-11-02 03:35:00
8:51 PM,62.6,39.2,42,29.97,12.0,Calm,Calm,-,N/A,,Clear,0,2013-11-02 03:51:00
8:55 PM,60.8,39.2,45,29.98,10.0,Calm,Calm,-,N/A,,Clear,0,2013-11-02 03:55:00
9:15 PM,60.8,37.4,42,29.98,10.0,NW,3.5,-,N/A,,Clear,310,2013-11-02 04:15:00
9:35 PM,59.0,35.6,42,29.99,10.0,Calm,Calm,-,N/A,,Clear,0,2013-11-02 04:35:00
9:55 PM,59.0,37.4,45,29.99,10.0,Calm,Calm,-,N/A,,Clear,0,2013-11-02 04:55:00
10:15 PM,57.2,37.4,48,30.00,10.0,Calm,Calm,-,N/A,,Clear,0,2013-11-02 05:15:00
10:35 PM,57.2,35.6,44,30.01,10.0,Calm,Calm,-,N/A,,Clear,0,2013-11-02 05:35:00
10:55 PM,57.2,35.6,44,30.02,10.0,Calm,Calm,-,N/A,,Clear,0,2013-11-02 05:55:00
11:15 PM,55.4,37.4,51,30.02,10.0,Calm,Calm,-,N/A,,Clear,0,2013-11-02 06:15:00
11:35 PM,55.4,37.4,51,30.02,10.0,NW,3.5,-,N/A,,Clear,310,2013-11-02 06:35:00
11:55 PM,53.6,35.6,51,30.02,10.0,Calm,Calm,-,N/A,,Clear,0,2013-11-02 06:55:00